Погода в Баяраке

Россия / Курганская область     55°57′16″N   65°24′56″E
темп.,
°C
ветер,
м/с
пор.,
м/с
влажн.,
%
обл.,
%
осадки,
мм/ч
давл.,
гПа
погр.,
м
21 июня, пн
пн2123:00+11ссз91660100 0.0 10091605
02:00+9ссз91679100 0.3 10111096
05:00+10ссз91575100 0.4 10131084
08:00+11ссз91472100 0.0 10151024
11:00+11с71179100 0.0 1018874
14:00+17с695564 0.0 10181585
17:00+17с6850100 0.1 10191893
20:00+15ссз476099 0.0 1019372
22 июня, вт
вт2223:00+13с2269100 0.0 102026
02:00+12зсз2266100 0.0 102019
05:00+13сз2366100 0.0 102066
08:00+14ююз1266100 0.0 101995
11:00+14ю2363100 0.0 1019345
14:00+16ю236192 0.0 1018353
17:00+17в345962 0.0 1016217
20:00+15всв3469100 0.0 1016174
23 июня, ср
ср2323:00+12св2375100 0.0 101643
02:00+12ссз3476100 0.1 101692
05:00+11ссз37815 0.1 1016194
08:00+15ссв585997 0.0 1017665
11:00+18ссв574424 0.0 10181984
14:00+20с673576 0.0 10182570
17:00+18св564389 0.0 10181155
20:00+16всв3554100 0.0 1017264
24 июня, чт
чт2423:00+13ю225978 0.0 101818
02:00+10з47735 0.0 1017105
05:00+10зсз49735 0.0 1016146
08:00+16ссз4648100 0.0 1016535
11:00+20с48386 0.0 10151897
14:00+22ссв58315 0.0 10142735
17:00+22ссв573224 0.0 10142405
20:00+17вюв47596 0.0 1015290
25 июня, пт
пт2523:00+12юв3880100 0.0 1015179
02:00+10ююв3683100 0.0 1015115
05:00+10ююв3683100 0.0 1014135
08:00+15ююв4662100 0.0 1014401
11:00+16ю4661100 0.0 1014519
14:00+15ю3578100 0.3 1013219
17:00+14ююз2493100 1.1 1012153
20:00+15ююв368956 0.1 1010253